Location: Aultman
(40.9284°N, 81.4173°W)
Time: 08:57:29
(UTC+00:00)

CZ-4B R/B - Pass Details

Date: 24 January 2021
Orbit: 387 x 458 km, 97.6° (Epoch: 02 March)

Event Time Altitude Azimuth Distance (km) Brightness Sun altitude
Rises 23:00:05 0° 21° (NNE) 2,442 4.7 -5.5°
Reaches altitude 10° 23:02:15 10° 30° (NNE) 1,554 3.7 -5.9°
Maximum altitude 23:05:21 35° 98° (E) 709 2.0 -6.4°
Drops below altitude 10° 23:08:20 10° 167° (SSE) 1,503 4.1 -6.9°
Sets 23:10:23 0° 176° (S) 2,347 5.2 -7.3°
